M I D A S
Marine Information and Data Acquisition System
Tripno 457 of the Zeeleeuw from 2003-04-01 06:32:29 to 2003-04-01 11:04:48
Back to CruiseResearch ActivitiesStationsMapUnderway DataData graphs

EquipmentUnitsComments
TimeDGPSUTC
LatitudeDGPSDM.mWGS84
LongitudeDGPSDM.mWGS84
SpeedMeteo Stationm/sRelative wind speed
DirectionMeteo StationdegRelative wind direction
TemperatureMeteo Stationdeg CelciusAir temperature
PressureMeteo StationPaAtmospheric pressure
HumidityMeteo Station%Relative humidity
Missing or incorrect values are displayed as -999
Metereological data collected by the RV Zeeleeuw from 2003-04-01 06:32:29 to 2003-04-01 11:04:48
Time Latitude Longitude Speed Direction Temperature Pressure Humidity
2003-04-01 06:33 51°13.636 2°55.965 2.1 276 3.7 101680 80
2003-04-01 06:34 51°13.662 2°55.886 2.2 229 3.8 101680 80
2003-04-01 06:35 51°13.669 2°55.809 5 222 3.8 101680 80
2003-04-01 06:36 51°13.669 2°55.759 4 241 3.8 101680 80
2003-04-01 06:37 51°13.689 2°55.77 2.3 183 3.7 101690 80
2003-04-01 06:38 51°13.688 2°55.764 1.6 158 3.8 101690 80
2003-04-01 06:39 51°13.731 2°55.725 2.5 84 3.9 101690 80
2003-04-01 06:40 51°13.82 2°55.641 2 49 4 101690 79
2003-04-01 06:41 51°13.931 2°55.556 2.2 36 4 101680 79
2003-04-01 06:42 51°14.049 2°55.472 3.3 56 4.1 101660 78
2003-04-01 06:43 51°14.177 2°55.371 2.2 62 4.2 101650 78
2003-04-01 06:44 51°14.28 2°55.232 4.1 54 4.2 101650 77
2003-04-01 06:45 51°14.369 2°55.061 6.2 65 4.5 101620 77
2003-04-01 06:46 51°14.502 2°54.898 5.2 84 4.8 101620 76
2003-04-01 06:47 51°14.664 2°54.716 7.6 92 4.8 101610 75
2003-04-01 06:48 51°14.83 2°54.53 6 100 4.8 101600 76
2003-04-01 06:49 51°14.999 2°54.351 9.8 92 4.9 101610 77
2003-04-01 06:50 51°15.164 2°54.172 9.6 84 5.2 101620 77
2003-04-01 06:51 51°15.336 2°53.991 10.9 84 5.4 101630 76
2003-04-01 06:52 51°15.515 2°53.806 11 87 5.5 101630 75
2003-04-01 06:53 51°15.702 2°53.616 8.5 76 5.6 101610 75
2003-04-01 06:54 51°15.905 2°53.416 8.8 84 5.6 101620 75
2003-04-01 06:55 51°16.109 2°53.234 7.9 85 5.6 101610 75
2003-04-01 06:56 51°16.315 2°53.055 7.8 81 5.5 101590 76
2003-04-01 06:57 51°16.52 2°52.884 8.6 95 5.5 101590 77
2003-04-01 06:58 51°16.728 2°52.727 7.9 77 5.5 101590 76
2003-04-01 06:59 51°16.921 2°52.574 8.9 87 5.5 101590 77
2003-04-01 07:00 51°17.119 2°52.426 9.1 91 5.5 101590 77
2003-04-01 07:01 51°17.315 2°52.265 8 91 5.5 101590 78
2003-04-01 07:02 51°17.516 2°52.113 7.5 84 5.5 101590 78
2003-04-01 07:03 51°17.718 2°51.961 8 90 5.6 101590 79
2003-04-01 07:04 51°17.916 2°51.808 7.7 93 5.7 101590 80
2003-04-01 07:05 51°18.116 2°51.654 9.6 98 5.8 101580 79
2003-04-01 07:06 51°18.322 2°51.492 8 82 6 101560 78
2003-04-01 07:07 51°18.527 2°51.329 7.2 64 6.2 101570 78
2003-04-01 07:08 51°18.735 2°51.162 7.1 74 6.2 101570 78
2003-04-01 07:09 51°18.941 2°50.994 9.3 87 6.3 101570 78
2003-04-01 07:10 51°19.138 2°50.804 10.1 69 6.4 101580 77
2003-04-01 07:11 51°19.324 2°50.582 9.7 69 6.5 101570 77
2003-04-01 07:12 51°19.511 2°50.364 11 76 6.6 101560 77
2003-04-01 07:13 51°19.699 2°50.138 10.9 68 6.8 101560 75
2003-04-01 07:14 51°19.792 2°49.789 14.4 44 7 101510 74
2003-04-01 07:15 51°19.795 2°49.391 15.9 31 7 101480 73
2003-04-01 07:16 51°19.786 2°48.991 15.5 32 7.1 101470 73
2003-04-01 07:17 51°19.778 2°48.591 16.1 36 7.1 101480 73
2003-04-01 07:18 51°19.768 2°48.198 16.2 32 7.2 101470 72
2003-04-01 07:19 51°19.759 2°47.794 16.6 33 7.1 101470 73
2003-04-01 07:20 51°19.749 2°47.396 17.1 34 7 101470 72
2003-04-01 07:21 51°19.739 2°46.994 17.1 32 7 101470 74
2003-04-01 07:22 51°19.727 2°46.592 16.2 35 7 101460 74
2003-04-01 07:23 51°19.715 2°46.188 15.5 35 7 101470 74
2003-04-01 07:24 51°19.705 2°45.788 16.1 37 7.1 101480 74
2003-04-01 07:25 51°19.697 2°45.389 15.2 29 7.1 101490 74
2003-04-01 07:26 51°19.614 2°45.015 17.1 2 7.1 101490 74
2003-04-01 07:27 51°19.453 2°44.713 16.5 2 7.2 101500 75
2003-04-01 07:28 51°19.282 2°44.426 17.6 2 7.3 101530 74
2003-04-01 07:29 51°19.125 2°44.154 14.7 6 7.3 101490 72
2003-04-01 07:30 51°19.033 2°43.965 14.3 11 7.4 101510 71
2003-04-01 07:31 51°18.969 2°43.847 11.6 5 7.4 101550 71
2003-04-01 07:32 51°18.936 2°43.775 9.6 36 7.4 101550 70
2003-04-01 07:33 51°18.934 2°43.768 10.6 54 7.4 101530 70
2003-04-01 07:34 51°18.935 2°43.746 9.3 74 7.4 101550 71
2003-04-01 07:35 51°18.936 2°43.722 9.5 84 7.3 101570 71
2003-04-01 07:36 51°18.938 2°43.7 11.5 94 7.3 101570 70
2003-04-01 07:37 51°18.936 2°43.689 10.9 96 7.3 101570 71
2003-04-01 07:38 51°18.926 2°43.683 7.2 107 7.2 101580 72
2003-04-01 07:39 51°18.912 2°43.675 9.6 125 7.2 101570 73
2003-04-01 07:40 51°18.898 2°43.667 10.5 130 7.2 101580 73
2003-04-01 07:41 51°18.889 2°43.658 10.3 133 7.1 101560 73
2003-04-01 07:42 51°18.886 2°43.646 10 128 7.1 101550 73
2003-04-01 07:43 51°18.891 2°43.628 7.2 119 7 101550 73
2003-04-01 07:44 51°18.905 2°43.607 7.4 135 7 101540 74
2003-04-01 07:45 51°18.924 2°43.595 7.9 154 7 101550 75
2003-04-01 07:46 51°18.939 2°43.602 7.1 202 7.1 101560 75
2003-04-01 07:47 51°18.94 2°43.622 8.4 228 7.1 101560 75
2003-04-01 07:48 51°18.93 2°43.645 9.9 253 7.1 101560 74
2003-04-01 07:49 51°18.909 2°43.657 9.8 269 7 101550 75
2003-04-01 07:50 51°18.885 2°43.661 9 286 7 101550 75
2003-04-01 07:51 51°18.85 2°43.661 10.7 322 7 101520 75
2003-04-01 07:52 51°18.794 2°43.595 11.5 22 7 101520 75
2003-04-01 07:53 51°18.768 2°43.437 11.9 32 7 101500 75
2003-04-01 07:54 51°18.747 2°43.234 13.3 27 7.1 101490 76
2003-04-01 07:55 51°18.725 2°43.018 13.1 34 7.1 101480 75
2003-04-01 07:56 51°18.707 2°42.797 13.9 38 7.1 101480 75
2003-04-01 07:57 51°18.69 2°42.572 12.2 37 7.1 101490 75
2003-04-01 07:58 51°18.673 2°42.352 12.7 39 7.1 101490 75
2003-04-01 07:59 51°18.66 2°42.129 13.2 33 7.1 101490 76
2003-04-01 08:00 51°18.644 2°41.899 12.5 35 7.2 101500 76
2003-04-01 08:01 51°18.628 2°41.675 13.4 36 7.2 101490 76
2003-04-01 08:02 51°18.613 2°41.445 12.7 32 7.3 101490 76
2003-04-01 08:03 51°18.598 2°41.222 11.9 33 7.3 101480 76
2003-04-01 08:04 51°18.59 2°40.999 11.4 56 7.3 101490 76
2003-04-01 08:05 51°18.646 2°40.898 5.2 105 7.3 101510 77
2003-04-01 08:06 51°18.705 2°40.867 7.7 143 7.3 101510 77
2003-04-01 08:07 51°18.738 2°40.87 4.9 173 7.3 101520 77
2003-04-01 08:08 51°18.743 2°40.867 9.4 202 7.5 101520 77
2003-04-01 08:09 51°18.743 2°40.869 9.1 202 7.4 101510 77
2003-04-01 08:10 51°18.744 2°40.874 8.7 213 7.4 101510 77
2003-04-01 08:11 51°18.741 2°40.875 9.2 218 7.4 101510 77
2003-04-01 08:12 51°18.737 2°40.871 9 221 7.4 101510 78
2003-04-01 08:13 51°18.73 2°40.858 9.9 224 7.5 101510 78
2003-04-01 08:14 51°18.72 2°40.852 10.4 229 7.5 101510 78
2003-04-01 08:15 51°18.709 2°40.849 9.5 240 7.6 101510 77
2003-04-01 08:16 51°18.695 2°40.848 9.2 237 7.9 101510 77
2003-04-01 08:17 51°18.68 2°40.843 12.1 252 7.9 101500 76
2003-04-01 08:18 51°18.664 2°40.837 10.2 257 8 101500 76
2003-04-01 08:19 51°18.65 2°40.831 10 265 8 101510 76
2003-04-01 08:20 51°18.636 2°40.825 10.8 266 8 101500 76
2003-04-01 08:21 51°18.619 2°40.819 10.1 272 8.1 101490 76
2003-04-01 08:22 51°18.601 2°40.813 11.1 272 8.1 101480 76
2003-04-01 08:23 51°18.579 2°40.81 9.9 300 8.1 101470 76
2003-04-01 08:24 51°18.542 2°40.797 11.3 322 8.1 101450 76
2003-04-01 08:25 51°18.505 2°40.756 13 357 8.1 101460 76
2003-04-01 08:26 51°18.477 2°40.695 10.7 40 8.1 101440 76
2003-04-01 08:27 51°18.487 2°40.622 10.1 99 8.2 101430 76
2003-04-01 08:28 51°18.538 2°40.623 8.3 213 8.2 101460 75
2003-04-01 08:29 51°18.511 2°40.725 14.1 278 8.2 101480 75
2003-04-01 08:30 51°18.421 2°40.817 11.2 278 8.1 101430 76
2003-04-01 08:31 51°18.316 2°40.905 10 287 8.1 101430 76
2003-04-01 08:32 51°18.207 2°40.996 13 291 8.1 101410 76
2003-04-01 08:33 51°18.085 2°41.031 13.7 318 8.1 101440 77
2003-04-01 08:34 51°17.957 2°40.994 15.7 334 8.1 101410 77
2003-04-01 08:35 51°17.839 2°40.909 14.2 336 8.1 101410 77
2003-04-01 08:36 51°17.737 2°40.827 16 337 8.1 101410 76
2003-04-01 08:37 51°17.641 2°40.747 16.5 334 8.2 101410 77
2003-04-01 08:38 51°17.55 2°40.676 15 337 8.2 101410 76
2003-04-01 08:39 51°17.463 2°40.604 15.2 339 8.1 101420 77
2003-04-01 08:40 51°17.379 2°40.533 14.1 342 8.2 101410 77
2003-04-01 08:41 51°17.296 2°40.465 14.9 336 8.1 101410 77
2003-04-01 08:42 51°17.213 2°40.397 13.6 336 8.1 101410 76
2003-04-01 08:43 51°17.129 2°40.33 14.8 332 8.2 101410 76
2003-04-01 08:44 51°17.049 2°40.267 13.1 331 8.2 101410 76
2003-04-01 08:45 51°16.974 2°40.203 12.9 343 8.2 101400 76
2003-04-01 08:46 51°16.902 2°40.133 14.6 337 8.2 101410 76
2003-04-01 08:47 51°16.829 2°40.068 14 337 8.2 101420 76
2003-04-01 08:48 51°16.757 2°40 15.3 335 8.2 101420 77
2003-04-01 08:49 51°16.681 2°39.929 13 339 8.2 101420 77
2003-04-01 08:50 51°16.622 2°39.873 13.9 345 8.1 101420 77
2003-04-01 08:51 51°16.58 2°39.815 12.1 347 8.2 101430 77
2003-04-01 08:52 51°16.548 2°39.763 11.1 359 8.1 101430 77
2003-04-01 08:53 51°16.518 2°39.714 12 355 8.1 101430 77
2003-04-01 08:54 51°16.493 2°39.673 10.8 357 8.2 101430 77
2003-04-01 08:55 51°16.473 2°39.651 10.7 334 8.2 101430 78
2003-04-01 08:56 51°16.458 2°39.64 12.1 315 8.2 101420 77
2003-04-01 08:57 51°16.453 2°39.634 10.4 288 8.1 101420 77
2003-04-01 08:58 51°16.447 2°39.626 11.7 259 8.1 101420 78
2003-04-01 08:59 51°16.44 2°39.621 10.6 240 8.1 101420 77
2003-04-01 09:00 51°16.43 2°39.618 12.2 243 8.1 101430 77
2003-04-01 09:01 51°16.418 2°39.618 12.7 247 8.1 101430 77
2003-04-01 09:02 51°16.408 2°39.617 9.6 244 8.2 101450 78
2003-04-01 09:03 51°16.396 2°39.615 11.2 259 8.1 101420 78
2003-04-01 09:04 51°16.381 2°39.613 10.5 265 8.1 101410 78
2003-04-01 09:05 51°16.365 2°39.612 11.8 262 8.1 101410 79
2003-04-01 09:06 51°16.351 2°39.611 9.7 271 8.1 101410 79
2003-04-01 09:07 51°16.336 2°39.609 10.6 266 8.1 101410 79
2003-04-01 09:08 51°16.322 2°39.609 10.7 265 8.2 101410 78
2003-04-01 09:09 51°16.308 2°39.611 13.6 263 8.2 101410 78
2003-04-01 09:10 51°16.293 2°39.613 10.5 267 8.2 101410 78
2003-04-01 09:11 51°16.278 2°39.614 11.7 262 8.2 101420 78
2003-04-01 09:12 51°16.262 2°39.614 12.1 265 8.2 101420 78
2003-04-01 09:13 51°16.248 2°39.616 11.1 269 8.2 101420 78
2003-04-01 09:14 51°16.235 2°39.619 10.7 255 8.3 101420 78
2003-04-01 09:15 51°16.22 2°39.624 11.2 259 8.2 101420 78
2003-04-01 09:16 51°16.204 2°39.627 13 268 8.3 101420 78
2003-04-01 09:17 51°16.186 2°39.631 11.4 263 8.3 101410 78
2003-04-01 09:18 51°16.17 2°39.634 11.9 266 8.2 101410 78
2003-04-01 09:19 51°16.157 2°39.639 10.6 258 8.3 101400 78
2003-04-01 09:20 51°16.143 2°39.644 10.9 261 8.3 101410 78
2003-04-01 09:21 51°16.129 2°39.649 11.4 261 8.3 101410 78
2003-04-01 09:22 51°16.114 2°39.653 10.8 262 8.3 101400 78
2003-04-01 09:23 51°16.099 2°39.66 12.8 264 8.3 101410 78
2003-04-01 09:24 51°16.083 2°39.668 11 267 8.3 101410 78
2003-04-01 09:25 51°16.068 2°39.674 10.8 262 8.3 101410 78
2003-04-01 09:26 51°16.053 2°39.682 12.2 271 8.3 101400 78
2003-04-01 09:27 51°16.036 2°39.687 10.1 261 8.4 101400 78
2003-04-01 09:28 51°16.02 2°39.694 12.4 265 8.4 101400 78
2003-04-01 09:29 51°16.004 2°39.702 10.6 259 8.4 101410 78
2003-04-01 09:30 51°15.989 2°39.711 9.2 258 8.4 101410 78
2003-04-01 09:31 51°15.975 2°39.718 11.5 261 8.4 101400 78
2003-04-01 09:32 51°15.961 2°39.728 11 264 8.4 101400 78
2003-04-01 09:33 51°15.946 2°39.736 10.2 260 8.4 101390 78
2003-04-01 09:34 51°15.933 2°39.75 12.3 263 8.4 101380 78
2003-04-01 09:35 51°15.92 2°39.765 12.3 262 8.4 101380 78
2003-04-01 09:36 51°15.905 2°39.776 12.2 263 8.5 101370 77
2003-04-01 09:37 51°15.891 2°39.788 13.5 273 8.5 101380 78
2003-04-01 09:38 51°15.876 2°39.8 12.9 274 8.4 101360 78
2003-04-01 09:39 51°15.865 2°39.813 10.7 264 8.5 101360 77
2003-04-01 09:40 51°15.852 2°39.827 13.6 256 8.5 101360 77
2003-04-01 09:41 51°15.843 2°39.843 12.5 263 8.5 101350 78
2003-04-01 09:42 51°15.833 2°39.856 12 263 8.5 101350 77
2003-04-01 09:43 51°15.824 2°39.869 13.8 256 8.5 101350 77
2003-04-01 09:44 51°15.807 2°39.888 11.8 259 8.5 101350 78
2003-04-01 09:45 51°15.78 2°39.906 13.7 276 8.5 101350 78
2003-04-01 09:46 51°15.75 2°39.923 8 281 8.5 101350 77
2003-04-01 09:47 51°15.721 2°39.939 8 287 8.5 101360 76
2003-04-01 09:48 51°15.692 2°39.957 11.2 281 8.5 101350 77
2003-04-01 09:49 51°15.666 2°39.976 12.4 276 8.5 101340 77
2003-04-01 09:50 51°15.638 2°40.005 12.7 261 8.5 101350 77
2003-04-01 09:51 51°15.588 2°40.126 9.6 227 8.5 101360 76
2003-04-01 09:52 51°15.567 2°40.318 8.3 133 8.6 101370 76
2003-04-01 09:53 51°15.553 2°40.528 9.8 135 8.6 101360 76
2003-04-01 09:54 51°15.544 2°40.739 8.7 225 8.6 101360 75
2003-04-01 09:55 51°15.537 2°40.955 8.6 219 8.6 101350 75
2003-04-01 09:56 51°15.533 2°41.168 6.6 134 8.6 101360 75
2003-04-01 09:57 51°15.529 2°41.392 8.5 222 8.6 101360 76
2003-04-01 09:58 51°15.525 2°41.618 7.4 221 8.6 101350 75
2003-04-01 09:59 51°15.521 2°41.839 8.5 320 8.6 101360 75
2003-04-01 10:00 51°15.519 2°42.067 9 222 8.7 101360 75
2003-04-01 10:01 51°15.515 2°42.291 9 211 8.6 101360 75
2003-04-01 10:02 51°15.51 2°42.514 8.5 217 8.7 101350 75
2003-04-01 10:03 51°15.507 2°42.738 8.3 221 8.7 101360 75
2003-04-01 10:04 51°15.502 2°42.961 6.6 226 8.7 101360 75
2003-04-01 10:05 51°15.495 2°43.184 7.2 215 8.6 101360 76
2003-04-01 10:06 51°15.489 2°43.407 6.9 316 8.7 101350 75
2003-04-01 10:07 51°15.484 2°43.63 8 232 8.7 101350 75
2003-04-01 10:08 51°15.478 2°43.849 6.8 218 8.7 101350 75
2003-04-01 10:09 51°15.474 2°44.075 6.4 225 8.7 101350 75
2003-04-01 10:10 51°15.469 2°44.301 7 225 8.7 101350 76
2003-04-01 10:11 51°15.466 2°44.528 7.5 225 8.6 101350 75
2003-04-01 10:12 51°15.466 2°44.752 9.6 225 8.7 101350 75
2003-04-01 10:13 51°15.464 2°44.976 5.7 315 8.7 101350 75
2003-04-01 10:14 51°15.464 2°45.211 7.5 233 8.7 101350 75
2003-04-01 10:15 51°15.461 2°45.442 7.4 227 8.7 101350 75
2003-04-01 10:16 51°15.465 2°45.674 7.1 222 8.7 101340 75
2003-04-01 10:17 51°15.47 2°45.907 7.8 212 8.7 101340 75
2003-04-01 10:18 51°15.475 2°46.141 8 225 8.8 101340 74
2003-04-01 10:19 51°15.48 2°46.37 7 218 8.8 101330 75
2003-04-01 10:20 51°15.488 2°46.605 5.2 134 8.8 101330 75
2003-04-01 10:21 51°15.494 2°46.838 6.3 227 8.7 101330 75
2003-04-01 10:22 51°15.5 2°47.07 5.7 230 8.7 101320 76
2003-04-01 10:23 51°15.505 2°47.301 6.8 315 8.7 101320 76
2003-04-01 10:24 51°15.509 2°47.538 6 316 8.7 101320 75
2003-04-01 10:25 51°15.512 2°47.772 6.2 236 8.7 101310 75
2003-04-01 10:26 51°15.514 2°48.007 6 237 8.8 101310 75
2003-04-01 10:27 51°15.517 2°48.242 5.1 237 8.8 101310 76
2003-04-01 10:28 51°15.519 2°48.478 6.3 241 8.8 101310 76
2003-04-01 10:29 51°15.52 2°48.716 6.9 233 8.7 101310 76
2003-04-01 10:30 51°15.524 2°48.952 6.2 234 8.8 101300 76
2003-04-01 10:31 51°15.527 2°49.185 6.1 240 8.8 101300 75
2003-04-01 10:32 51°15.53 2°49.419 5.8 232 8.8 101300 75
2003-04-01 10:33 51°15.533 2°49.665 6.3 236 8.8 101300 75
2003-04-01 10:34 51°15.537 2°49.906 7 236 8.8 101300 74
2003-04-01 10:35 51°15.541 2°50.15 6 229 8.9 101290 74
2003-04-01 10:36 51°15.551 2°50.397 6.7 238 8.9 101300 74
2003-04-01 10:37 51°15.559 2°50.645 5.9 237 8.9 101290 73
2003-04-01 10:38 51°15.566 2°50.891 6.6 248 8.9 101290 72
2003-04-01 10:39 51°15.537 2°51.126 8.6 258 9 101280 73
2003-04-01 10:40 51°15.494 2°51.347 9 265 9 101280 73
2003-04-01 10:41 51°15.448 2°51.571 8.1 256 9 101270 72
2003-04-01 10:42 51°15.381 2°51.84 7.9 281 9 101280 73
2003-04-01 10:43 51°15.301 2°52.163 10.5 275 9.1 101270 72
2003-04-01 10:44 51°15.221 2°52.481 11.2 272 9 101260 72
2003-04-01 10:45 51°15.143 2°52.788 11.2 273 9.1 101260 71
2003-04-01 10:46 51°15.037 2°53.093 12.6 274 9.2 101260 70
2003-04-01 10:47 51°14.934 2°53.381 11.3 274 9.3 101250 68
2003-04-01 10:48 51°14.84 2°53.672 12.2 274 9.4 101260 67
2003-04-01 10:49 51°14.747 2°53.96 12.5 273 9.5 101250 68
2003-04-01 10:50 51°14.648 2°54.246 11.9 275 9.5 101260 70
2003-04-01 10:51 51°14.559 2°54.535 9.9 277 9.6 101260 67
2003-04-01 10:52 51°14.462 2°54.834 9.9 277 9.6 101270 67
2003-04-01 10:53 51°14.357 2°55.115 9.6 292 9.7 101260 65
2003-04-01 10:54 51°14.243 2°55.296 6.4 286 9.9 101260 65
2003-04-01 10:55 51°14.156 2°55.38 4.8 278 10 101270 62
2003-04-01 10:56 51°14.08 2°55.437 6.2 303 10.3 101270 61
2003-04-01 10:57 51°14.003 2°55.497 7.3 316 10.5 101270 60
2003-04-01 10:58 51°13.924 2°55.558 4 270 10.7 101270 59
2003-04-01 10:59 51°13.845 2°55.618 6.2 324 10.8 101270 59
2003-04-01 11:00 51°13.775 2°55.686 5.4 294 10.8 101270 58
2003-04-01 11:01 51°13.714 2°55.771 2.9 289 10.9 101270 59
2003-04-01 11:02 51°13.673 2°55.86 7.3 257 10.9 101270 58
2003-04-01 11:03 51°13.639 2°55.947 9.1 230 10.9 101260 58
2003-04-01 11:04 51°13.617 2°56.028 3.1 273 10.9 101270 58